N0DNE Weather Reports


time (UTC)temp
C
wind
direction
speed
KPH
gust
KPH
rain 1hr
cm
rain 24hr
cm
rain mn
cm
humidity
%
barometer
mb
20260503031019 20 0 0.0 0.0 0.00 0.00 0.00 35 1012.1
20260503030520 20 0 0.0 0.0 0.00 0.00 0.00 35 1012.1
20260503030037 21 0 0.0 0.0 0.00 0.00 0.00 34 1012.0
20260503025519 21 0 0.0 0.0 0.00 0.00 0.00 33 1012.1
20260503025021 21 0 0.0 0.0 0.00 0.00 0.00 33 1012.0
20260503024536 21 0 0.0 0.0 0.00 0.00 0.00 33 1012.1
20260503024021 21 0 0.0 0.0 0.00 0.00 0.00 32 1012.0
20260503023521 21 0 0.0 0.0 0.00 0.00 0.00 31 1012.0
20260503023052 22 0 0.0 0.0 0.00 0.00 0.00 31 1012.0
20260503022520 22 0 0.0 0.0 0.00 0.00 0.00 31 1011.9
20260503022021 22 0 0.0 0.0 0.00 0.00 0.00 31 1011.9
20260503021545 22 0 0.0 0.0 0.00 0.00 0.00 31 1011.9
20260503021021 22 0 0.0 0.0 0.00 0.00 0.00 30 1011.9
20260503020519 22 0 0.0 0.0 0.00 0.00 0.00 29 1012.0
20260503020038 23 0 0.0 4.8 0.00 0.00 0.00 29 1011.9
20260503015519 23 0 0.0 4.8 0.00 0.00 0.00 29 1012.0
20260503015019 23 0 0.0 0.0 0.00 0.00 0.00 29 1011.9
20260503014536 23 0 0.0 4.8 0.00 0.00 0.00 28 1011.9
20260503014021 23 0 0.0 4.8 0.00 0.00 0.00 28 1011.9
20260503013521 23 0 0.0 4.8 0.00 0.00 0.00 28 1012.0
20260503013036 24 0 0.0 4.8 0.00 0.00 0.00 28 1012.0
20260503012520 24 297 0.0 0.0 0.00 0.00 0.00 27 1012.1
20260503012021 24 0 0.0 0.0 0.00 0.00 0.00 27 1012.2
20260503011548 24 0 0.0 3.2 0.00 0.00 0.00 25 1012.2
20260503011024 24 0 0.0 3.2 0.00 0.00 0.00 25 1012.2
20260503010519 25 334 0.0 1.6 0.00 0.00 0.00 25 1012.2
20260503010051 25 0 0.0 1.6 0.00 0.00 0.00 23 1012.2
20260503005520 25 0 0.0 1.6 0.00 0.00 0.00 23 1012.2
20260503005019 25 0 0.0 1.6 0.00 0.00 0.00 22 1012.2
20260503004540 25 0 0.0 1.6 0.00 0.00 0.00 22 1012.2
20260503004018 25 0 0.0 6.4 0.00 0.00 0.00 22 1012.2
20260503003520 25 0 0.0 6.4 0.00 0.00 0.00 22 1012.2
20260503003049 25 0 0.0 6.4 0.00 0.00 0.00 21 1012.2
20260503002524 25 0 0.0 6.4 0.00 0.00 0.00 21 1012.2
20260503002020 25 0 0.0 11.3 0.00 0.00 0.00 21 1012.2
20260503001537 26 0 3.2 11.3 0.00 0.00 0.00 21 1012.2
20260503001019 26 0 1.6 8.0 0.00 0.00 0.00 21 1012.2
20260503000519 26 0 0.0 4.8 0.00 0.00 0.00 22 1012.2
20260503000049 26 0 0.0 6.4 0.00 0.00 0.00 22 1012.2
20260502235519 26 0 0.0 6.4 0.00 0.00 0.00 21 1012.2
20260502235021 26 0 0.0 6.4 0.00 0.00 0.00 21 1012.3
20260502234538 26 0 0.0 3.2 0.00 0.00 0.00 21 1012.2
20260502234020 26 0 0.0 3.2 0.00 0.00 0.00 21 1012.4
20260502233521 26 0 0.0 4.8 0.00 0.00 0.00 20 1012.5
20260502233040 27 292 0.0 6.4 0.00 0.00 0.00 21 1012.5
20260502232520 27 0 0.0 12.9 0.00 0.00 0.00 20 1012.5
20260502232018 27 26 4.8 12.9 0.00 0.00 0.00 17 1012.4
20260502231544 27 0 0.0 4.8 0.00 0.00 0.00 20 1012.6
20260502231022 27 0 0.0 4.8 0.00 0.00 0.00 19 1012.5
20260502230521 28 0 0.0 4.8 0.00 0.00 0.00 19 1012.7
20260502230040 28 306 0.0 4.8 0.00 0.00 0.00 18 1012.8
20260502225519 28 0 0.0 3.2 0.00 0.00 0.00 19 1012.9
20260502225022 27 0 0.0 0.0 0.00 0.00 0.00 19 1012.9
20260502224537 27 0 0.0 0.0 0.00 0.00 0.00 22 1013.0
20260502224019 27 0 0.0 0.0 0.00 0.00 0.00 21 1013.0
20260502223521 27 0 0.0 0.0 0.00 0.00 0.00 22 1013.1
20260502223038 27 0 0.0 0.0 0.00 0.00 0.00 20 1013.1
20260502222518 27 0 0.0 1.6 0.00 0.00 0.00 20 1013.2
20260502222020 27 0 0.0 4.8 0.00 0.00 0.00 20 1013.2
20260502221535 27 0 0.0 4.8 0.00 0.00 0.00 19 1013.3
20260502221023 27 0 0.0 1.6 0.00 0.00 0.00 20 1013.3
20260502220518 28 0 0.0 0.0 0.00 0.00 0.00 19 1013.4
20260502220043 28 0 0.0 1.6 0.00 0.00 0.00 19 1013.3
20260502215519 28 0 0.0 4.8 0.00 0.00 0.00 22 1013.5
20260502215021 28 0 0.0 4.8 0.00 0.00 0.00 20 1013.5
20260502214538 28 301 0.0 3.2 0.00 0.00 0.00 22 1013.6
20260502214018 28 0 0.0 0.0 0.00 0.00 0.00 23 1013.7
20260502213520 28 0 0.0 0.0 0.00 0.00 0.00 21 1013.7
20260502213038 27 0 0.0 6.4 0.00 0.00 0.00 23 1013.8
20260502212521 27 0 0.0 6.4 0.00 0.00 0.00 24 1013.7
20260502212021 27 349 0.0 1.6 0.00 0.00 0.00 24 1014.0
20260502211546 27 0 0.0 0.0 0.00 0.00 0.00 26 1014.1
20260502211020 27 0 0.0 0.0 0.00 0.00 0.00 28 1014.1
20260502210520 27 0 0.0 0.0 0.00 0.00 0.00 24 1014.2
20260502210036 26 0 0.0 0.0 0.00 0.00 0.00 28 1014.3
20260502205518 27 0 0.0 9.7 0.00 0.00 0.00 25 1014.4
20260502205020 26 0 0.0 9.7 0.00 0.00 0.00 29 1014.4
20260502204542 26 0 0.0 9.7 0.00 0.00 0.00 26 1014.5
20260502204020 26 0 0.0 8.0 0.00 0.00 0.00 27 1014.5
20260502203519 26 0 1.6 8.0 0.00 0.00 0.00 24 1014.6
20260502203041 26 0 0.0 8.0 0.00 0.00 0.00 31 1014.6
20260502202522 26 0 0.0 8.0 0.00 0.00 0.00 28 1014.7
20260502202020 25 0 0.0 0.0 0.00 0.00 0.00 28 1014.7
20260502201540 26 0 0.0 0.0 0.00 0.00 0.00 26 1014.8
20260502201024 26 0 0.0 0.0 0.00 0.00 0.00 28 1014.9
20260502200523 26 0 0.0 0.0 0.00 0.00 0.00 28 1015.0
20260502200045 25 0 0.0 0.0 0.00 0.00 0.00 29 1015.0
20260502195521 25 0 0.0 0.0 0.00 0.00 0.00 31 1015.2
20260502195020 25 0 0.0 0.0 0.00 0.00 0.00 29 1015.2
20260502194536 24 0 0.0 0.0 0.00 0.00 0.00 31 1015.3
20260502194022 24 0 0.0 0.0 0.00 0.00 0.00 32 1015.5
20260502193520 23 0 0.0 0.0 0.00 0.00 0.00 32 1015.6
20260502193037 23 0 0.0 0.0 0.00 0.00 0.00 31 1015.8
20260502192522 23 0 0.0 0.0 0.00 0.00 0.00 32 1015.9
20260502192020 24 0 0.0 0.0 0.00 0.00 0.00 32 1016.0
20260502191550 24 0 0.0 0.0 0.00 0.00 0.00 31 1016.0
20260502191021 23 0 0.0 0.0 0.00 0.00 0.00 32 1016.0
20260502190521 23 0 0.0 0.0 0.00 0.00 0.00 32 1016.1
20260502190041 23 0 0.0 0.0 0.00 0.00 0.00 33 1016.1
20260502185518 23 0 0.0 0.0 0.00 0.00 0.00 31 1016.2
20260502185022 23 0 0.0 0.0 0.00 0.00 0.00 30 1016.2
20260502184541 23 0 0.0 0.0 0.00 0.00 0.00 30 1016.3
20260502184021 22 0 0.0 0.0 0.00 0.00 0.00 37 1016.3
20260502183518 22 0 0.0 3.2 0.00 0.00 0.00 33 1016.4
20260502183040 22 0 0.0 3.2 0.00 0.00 0.00 32 1016.4
20260502182521 22 0 0.0 3.2 0.00 0.00 0.00 33 1016.5
20260502182020 22 0 0.0 3.2 0.00 0.00 0.00 37 1016.6
20260502181536 22 0 0.0 3.2 0.00 0.00 0.00 35 1016.6
20260502181021 21 0 0.0 3.2 0.00 0.00 0.00 33 1016.7
20260502180521 21 0 0.0 3.2 0.00 0.00 0.00 33 1016.6
20260502164020 16 228 0.0 1.6 0.00 0.00 0.00 46 1017.5
20260502163519 16 0 0.0 1.6 0.00 0.00 0.00 47 1017.5
20260502163051 16 0 0.0 4.8 0.00 0.00 0.00 48 1017.6
20260502162519 15 0 0.0 4.8 0.00 0.00 0.00 47 1017.6
20260502162022 15 0 0.0 1.6 0.00 0.00 0.00 48 1017.6
20260502161541 14 0 0.0 1.6 0.00 0.00 0.00 48 1017.6
20260502161021 14 0 0.0 0.0 0.00 0.00 0.00 49 1017.7
20260502160521 13 0 0.0 1.6 0.00 0.00 0.00 53 1017.7
20260502152020 11 0 0.0 1.6 0.00 0.00 0.00 55 1017.5
20260502151546 10 0 0.0 1.6 0.00 0.00 0.00 57 1017.4
20260502151020 10 0 0.0 1.6 0.00 0.00 0.00 63 1017.4
20260502150520 10 0 0.0 0.0 0.00 0.00 0.00 65 1017.4
20260502130520 5 0 0.0 0.0 0.00 0.00 0.00 83 1016.8
20260502123520 6 0 0.0 0.0 0.00 0.00 0.00 81 1016.6
20260502123045 6 0 0.0 0.0 0.00 0.00 0.00 79 1016.6
20260502122520 6 0 0.0 0.0 0.00 0.00 0.00 79 1016.5
20260502122021 6 0 0.0 0.0 0.00 0.00 0.00 79 1016.5
20260502121536 6 0 0.0 0.0 0.00 0.00 0.00 79 1016.6
20260502121020 6 0 0.0 0.0 0.00 0.00 0.00 80 1016.5
20260502120520 6 0 0.0 0.0 0.00 0.00 0.00 80 1016.4
20260502115522 6 0 0.0 0.0 0.00 0.00 0.00 80 1016.6
20260502115021 6 0 0.0 0.0 0.00 0.00 0.00 79 1016.5
20260502114541 6 0 0.0 0.0 0.00 0.00 0.00 79 1016.6
20260502114019 6 0 0.0 0.0 0.00 0.00 0.00 79 1016.5
20260502113521 6 0 0.0 0.0 0.00 0.00 0.00 80 1016.5
20260502113040 6 0 0.0 0.0 0.00 0.00 0.00 80 1016.6
20260502112524 6 0 0.0 0.0 0.00 0.00 0.00 80 1016.6
20260502112024 6 0 0.0 0.0 0.00 0.00 0.00 81 1016.5
20260502111547 6 0 0.0 0.0 0.00 0.00 0.00 80 1016.5
20260502111020 7 0 0.0 0.0 0.00 0.00 0.00 78 1016.5
20260502110520 7 0 0.0 0.0 0.00 0.00 0.00 77 1016.5
20260502110036 7 0 0.0 0.0 0.00 0.00 0.00 76 1016.5
20260502105522 7 0 0.0 0.0 0.00 0.00 0.00 75 1016.5
20260502105020 7 0 0.0 0.0 0.00 0.00 0.00 75 1016.6
20260502104544 7 0 0.0 0.0 0.00 0.00 0.00 76 1016.5
20260502104021 7 0 0.0 0.0 0.00 0.00 0.00 76 1016.6
20260502103555 7 0 0.0 0.0 0.00 0.00 0.00 78 1016.5
20260502103041 7 0 0.0 0.0 0.00 0.00 0.00 76 1016.6
20260502102519 7 0 0.0 0.0 0.00 0.00 0.00 76 1016.6
20260502102020 7 0 0.0 0.0 0.00 0.00 0.00 74 1016.6
20260502101544 7 0 0.0 0.0 0.00 0.00 0.00 73 1016.5
20260502101019 7 0 0.0 0.0 0.00 0.00 0.00 73 1016.5
20260502100520 7 0 0.0 0.0 0.00 0.00 0.00 73 1016.5
20260502091020 7 0 0.0 0.0 0.00 0.00 0.00 77 1016.7
20260502090521 7 0 0.0 0.0 0.00 0.00 0.00 76 1016.7
20260502071019 9 0 0.0 0.0 0.00 0.00 0.00 69 1016.7
20260502070518 10 0 0.0 0.0 0.00 0.00 0.00 69 1016.7
20260502070041 10 0 0.0 0.0 0.00 0.00 0.00 68 1016.8
20260502065520 10 0 0.0 0.0 0.00 0.00 0.00 67 1016.7
20260502065021 10 0 0.0 0.0 0.00 0.00 0.00 67 1016.7
20260502064542 10 0 0.0 0.0 0.00 0.00 0.00 65 1016.8
20260502064023 10 0 0.0 0.0 0.00 0.00 0.00 60 1016.8
20260502063519 10 0 0.0 0.0 0.00 0.00 0.00 58 1016.8
20260502063054 10 0 0.0 0.0 0.00 0.00 0.00 57 1016.8
20260502062521 10 0 0.0 0.0 0.00 0.00 0.00 56 1016.9
20260502062020 11 0 0.0 0.0 0.00 0.00 0.00 56 1016.7
20260502061547 11 0 0.0 0.0 0.00 0.00 0.00 54 1016.6
20260502061021 11 0 0.0 0.0 0.00 0.00 0.00 54 1016.6
20260502060519 11 0 0.0 0.0 0.00 0.00 0.00 54 1016.7
20260502060040 11 0 0.0 0.0 0.00 0.00 0.00 54 1016.6
20260502055521 11 0 0.0 0.0 0.00 0.00 0.00 54 1016.7
20260502055021 11 0 0.0 0.0 0.00 0.00 0.00 53 1016.6
20260502054543 12 0 0.0 0.0 0.00 0.00 0.00 53 1016.6
20260502054020 12 0 0.0 0.0 0.00 0.00 0.00 53 1016.6
20260502053519 12 0 0.0 0.0 0.00 0.00 0.00 53 1016.6
20260502053050 12 0 0.0 0.0 0.00 0.00 0.00 52 1016.6
20260502052521 12 0 0.0 0.0 0.00 0.00 0.00 52 1016.6
20260502052020 12 0 0.0 0.0 0.00 0.00 0.00 52 1016.6
20260502051538 12 0 0.0 0.0 0.00 0.00 0.00 51 1016.6
20260502051019 12 0 0.0 0.0 0.00 0.00 0.00 51 1016.6
20260502050520 13 0 0.0 0.0 0.00 0.00 0.00 50 1016.6
20260502050036 13 0 0.0 0.0 0.00 0.00 0.00 49 1016.6
20260502045519 13 0 0.0 0.0 0.00 0.00 0.00 48 1016.6
20260502045021 13 0 0.0 0.0 0.00 0.00 0.00 47 1016.6
20260502044541 13 0 0.0 0.0 0.00 0.00 0.00 46 1016.6
20260502044018 13 0 0.0 0.0 0.00 0.00 0.00 46 1016.6
20260502043520 14 0 0.0 0.0 0.00 0.00 0.00 46 1016.6
20260502043042 14 0 0.0 0.0 0.00 0.00 0.00 46 1016.6
20260502042519 14 0 0.0 0.0 0.00 0.00 0.00 46 1016.6
20260502042021 14 0 0.0 0.0 0.00 0.00 0.00 46 1016.6
20260502041539 14 0 0.0 0.0 0.00 0.00 0.00 46 1016.7
20260502041022 15 0 0.0 0.0 0.00 0.00 0.00 45 1016.6
20260502040521 15 0 0.0 0.0 0.00 0.00 0.00 45 1016.5
20260502040040 15 0 0.0 0.0 0.00 0.00 0.00 45 1016.6
20260502035521 15 0 0.0 0.0 0.00 0.00 0.00 44 1016.6
20260502035019 15 0 0.0 0.0 0.00 0.00 0.00 43 1016.5
20260502034538 16 0 0.0 0.0 0.00 0.00 0.00 43 1016.5
20260502034021 16 0 0.0 0.0 0.00 0.00 0.00 45 1016.4
20260502033520 16 0 0.0 0.0 0.00 0.00 0.00 43 1016.5
20260502033041 17 0 0.0 0.0 0.00 0.00 0.00 40 1016.4
20260502032519 17 0 0.0 0.0 0.00 0.00 0.00 39 1016.4
20260502032018 17 0 0.0 0.0 0.00 0.00 0.00 38 1016.3
20260502031537 18 0 0.0 0.0 0.00 0.00 0.00 37 1016.3